SCP
0 0 0 0 0 0 0 0 0 0 0 0 0 0 0 0 0 0 0 0 0 0 0 0 0 0 0 0 0 0 0 0 0 0 0 0 0 0
0 0 0 0 0 0 0 0 0 0 0 0 0 0 0 0 0 0 0 0 0 0 0 0 0 0 0 0 0 0 0 0 0 0 0 0 0 0
0 0 0 0 0 0 0 0 0 0 0 0 0 0 0 0 0 0 0 0 0 0 0 0 0 0 0 0 0 0 0 0 0 0 0 0 0 0
0 0 0 0 0 0 0 0 0 0 0 0 0 0 0 0 0 0 0 0 0 0 0 0 0 0 0 0 0 0 0 0 0 0 0 0 0 0
0 0 0 0 0 0 0 0 0 0 0 0 0 0 -0 -0 -0 -0 0 0 0 0 0 0 0 0 0 0 0 0 0 0 0 0 0 0 0 0
0 0 0 0 0 0 0 0 0 0 0 0 -0 -0 -0 -0 -0 -0 -0 0 0 0 0 0 0 0 0 0 0 0 0 0 0 0 0 0 0 0
0 0 0 0 0 0 0 0 0 0 0 -0 -0 -0 -0 -0 -0 -0 0 0 0 0 0 0 0 0 0 0 0 0 0 0 0 0 0 0 0 0
0 0 0 0 0 0 0 0 0 0 -0 -0 -0 -0 -0 0 0 0 0 0 0 0 0 0 0 0 0 0 0 0 0 0 0 0 0 0 0 0
0 0 0 0 0 0 0 0 0 0 -0 -0 -0 0 0 0 0 0 0 0 0 0 0 0 0 0 0 0 0 0 0 0 0 0 0 0 0 0
0 0 0 0 0 0 0 0 0 0 -0 -0 -0 0 0 0 0 0 0 0 0 0 0 0 0 0 0 0 0 0 0 0 0 0 0 0 0 0
0 0 0 0 0 0 0 0 0 0 0 0 0 0 0 0 0 0 0 0 0 0 0 0 0 0 0 0 0 0 0 0 0 0 0 0 0 0
0 0 0 0 0 -0 -0 0 0 0 0 0 0 0 0 0 0 0 0 0 0 0 0 0 0 0 0 0 0 0 0 0 0 0 0 0 0 0
0 0 -0 0 0 -0 -0 0 0 0 0 0 0 0 0 0 0 0 0 0 0 0 0 0 0 0 0 0 0 0 0 0 0 0 0 0 0 0
0 -0 -0 -0 0 0 0 0 0 0 0 0 0 0 0 0 0 0 0 0 0 0 0 0 0 0 0 0 0 0 0 0 0 0 0 0 0 0
-0 -0 -0 0 0 0 0 0 0 0 0 0 0 0 0 0 0 0 0 0 0 0 0 0 0 0 0 0 0 0 0 0 0 0 0 0 0 0
-0 0 0 0 0 0 0 0 0 0 0 0 0 0 0 0 0 0 0 0 0 0 0 0 0 0 0 0 0 0 0 0 0 0 0 0 0 0
0 0 0 0 0 0 0 0 0 0 0 0 0 0 0 0 0 0 0 0 0 0 0 0 0 0 0 0 0 0 0 0 0 0 0 0 0 0
0 0 0 0 0 0 0 0 0 0 0 0 0 0 0 0 0 0 0 0 0 0 0 0 0 0 0 0 0 0 0 0 0 0 0 0 0 0
0 0 0 0 0 0 0 0 0 0 0 0 0 0 0 0 0 0 0 0 0 0 0 0 0 0 0 0 0 0 0 0 0 0 0 0 0 0
0 0 0 0 0 0 0 0 0 0 -0 -0 -0 0 0 0 0 0 0 0 0 0 0 0 0 0 0 0 0 0 0 0 0 0 0 0 0 0
0 0 0 0 0 0 0 0 0 -0 -0 -0 -0 0 0 0 0 0 0 0 0 0 0 0 0 0 0 0 0 0 0 0 0 0 0 0 0 0
0 0 0 0 0 0 0 0 0 -0 -0 -0 -0 0 0 0 0 0 0 0 0 0 0 0 0 0 0 0 0 0 0 0 0 0 0 0 0 0
0 0 0 -0 -0 0 0 0 0 -0 -0 -0 -0 0 0 0 0 0 0 0 0 0 0 0 0 0 0 0 0 0 0 0 0 0 0 0 0 0
Wind_Speed
5 6 6 6 7 7 7 7 7 10 11 10 7 6 5 6 10 8 8 13 17 18 17 16 14 11 9 7 7 8 8 9 11 13 14 16 17 17
4 7 7 7 7 7 7 7 8 9 10 8 8 9 9 8 11 8 8 17 18 18 17 16 13 11 10 10 10 11 12 13 14 15 16 17 18 18
7 7 10 10 8 8 7 8 8 8 10 9 8 8 9 10 9 9 9 9 9 14 12 9 8 9 9 11 12 14 15 17 18 19 20 20 20 20
9 9 11 9 11 9 8 10 9 9 9 11 8 7 9 10 11 11 10 8 6 4 3 3 4 6 9 12 14 17 18 20 21 22 23 23 23 22
9 10 11 12 12 11 11 11 9 8 8 9 9 7 8 9 10 10 9 5 4 2 2 4 6 8 11 14 17 19 21 22 24 25 26 25 25 24
10 11 12 13 13 14 12 12 9 8 8 8 10 10 9 9 7 7 6 4 3 2 2 4 6 9 12 15 18 21 24 25 27 28 27 26 25 23
12 13 13 17 20 15 11 8 8 8 9 9 10 11 10 8 6 5 5 2 2 1 2 3 4 5 7 12 18 23 28 30 32 32 31 29 26 22
13 13 14 15 16 17 18 17 15 12 11 11 11 12 13 10 6 5 3 3 2 1 1 3 3 6 7 8 19 30 33 33 34 34 33 30 26 22
12 12 11 11 15 12 14 17 17 19 19 15 14 14 14 10 6 5 5 3 2 1 1 3 3 5 7 12 27 32 22 18 23 29 31 29 24 21
12 12 12 13 13 13 12 13 13 14 15 12 12 13 12 8 6 4 5 5 3 1 1 3 3 4 7 11 24 28 10 6 15 22 25 24 22 19
12 12 12 12 15 17 13 12 13 13 12 14 12 7 5 3 5 6 6 4 2 0 1 2 3 4 5 10 17 25 22 17 18 21 22 22 22 20
11 11 13 12 14 15 10 9 11 12 11 9 4 8 8 9 9 5 3 3 1 1 2 2 3 3 4 6 11 14 16 24 24 23 24 26 25 18
10 9 8 13 14 14 11 9 11 12 8 2 5 7 8 7 7 7 5 3 2 2 2 2 3 3 3 4 8 13 14 14 15 19 24 28 25 20
9 8 8 14 15 14 10 10 13 8 0 4 6 7 7 7 7 7 8 8 8 8 7 5 4 4 3 4 6 8 13 14 14 15 15 26 29 29
9 15 17 16 13 9 10 11 6 2 4 6 8 8 7 7 6 7 9 10 12 11 10 10 8 7 8 8 7 8 9 13 14 14 14 15 14 13
10 13 15 12 9 8 7 5 5 6 6 8 8 7 6 6 6 6 8 7 8 9 10 11 10 11 11 13 12 13 12 9 11 13 13 14 13 11
12 7 5 6 7 6 5 6 6 6 7 7 7 7 6 6 6 6 7 6 7 8 9 9 11 12 14 12 12 13 13 13 11 10 11 13 12 11
10 7 7 7 7 7 6 6 7 7 7 7 7 7 6 6 7 7 6 6 7 8 9 8 7 9 11 13 15 12 12 12 11 11 9 12 14 11
7 7 7 8 8 7 7 7 7 7 7 7 7 7 7 6 6 7 6 6 7 7 7 6 6 8 11 12 11 14 10 11 11 11 11 11 13 11
7 7 7 8 8 8 7 7 7 7 7 7 7 7 7 6 6 7 6 7 7 8 8 8 8 9 9 8 6 8 12 9 10 11 11 11 12 15
8 7 7 7 7 8 7 7 7 7 7 7 7 8 6 6 6 7 7 8 8 8 9 8 8 10 9 8 8 8 11 13 10 8 10 11 11 10
8 8 7 7 7 7 7 7 7 6 7 7 7 6 6 5 6 7 6 6 7 8 9 7 7 8 9 10 10 10 10 10 11 12 10 7 5 6
9 8 8 8 7 6 6 7 7 6 6 6 6 5 5 5 5 5 6 6 7 8 8 8 8 9 10 10 11 10 12 10 8 10 12 14 19 21
Wind_Direction
288 295 294 291 288 278 268 262 272 289 293 290 286 273 273 281 282 285 284 291 293 289 282 274 262 254 250 251 252 251 252 251 250 249 248 247 248 249
283 295 298 297 293 283 270 261 252 263 275 279 279 283 287 288 291 293 293 296 292 289 281 271 248 235 238 244 249 251 251 250 249 249 248 248 248 248
287 293 298 300 295 290 279 267 258 254 267 276 273 278 281 284 292 292 289 285 280 282 280 265 232 232 244 254 258 259 257 254 251 248 247 247 246 246
285 292 295 298 295 293 285 277 269 259 266 278 282 281 282 287 288 287 285 279 266 280 314 299 266 261 264 267 266 263 259 255 252 248 246 245 244 244
285 289 291 293 292 289 287 282 276 273 270 280 288 284 283 282 283 280 272 255 237 229 267 274 275 274 272 270 266 262 257 252 248 245 243 241 241 241
292 290 288 286 283 283 283 278 281 287 288 287 287 286 283 278 266 269 260 219 221 232 272 272 275 282 280 276 271 267 260 251 244 239 236 234 234 235
302 296 291 289 285 284 285 289 293 289 286 284 283 285 283 276 262 248 246 194 208 222 272 266 280 284 287 286 283 277 269 257 243 233 226 224 224 225
304 301 298 294 292 295 299 299 295 289 286 282 281 278 278 271 258 236 193 176 210 189 272 278 284 289 294 291 293 293 280 258 236 222 214 211 211 211
299 298 298 296 298 291 290 294 292 285 279 276 273 271 271 265 244 215 189 181 166 116 263 273 285 294 308 313 318 316 295 251 217 201 196 195 194 195
297 292 289 290 288 287 288 287 285 284 281 275 266 265 264 256 229 193 150 122 105 57 293 278 305 307 321 328 333 342 360 105 148 159 166 171 174 179
302 293 288 284 287 292 293 290 291 293 294 292 289 277 252 177 136 128 138 139 136 83 337 310 323 318 326 340 345 4 37 78 111 131 143 149 150 146
308 302 299 294 295 301 301 295 295 301 311 320 6 60 74 78 79 86 108 110 110 95 357 351 350 347 345 342 356 10 31 54 78 100 118 124 124 120
303 305 303 306 309 309 303 290 286 293 300 335 75 74 72 70 67 64 63 70 82 58 5 11 15 13 8 340 6 22 32 41 55 69 79 87 91 101
309 308 310 315 316 311 305 296 299 301 58 87 81 74 73 72 72 73 73 72 70 68 50 51 51 30 32 40 31 24 40 40 49 59 67 74 78 81
321 323 324 323 323 317 314 321 335 50 84 84 80 75 75 80 84 84 79 76 71 68 66 64 65 60 60 68 61 43 51 43 43 53 59 63 71 80
331 324 323 323 327 326 331 359 43 66 82 88 88 85 81 76 72 74 82 83 84 81 72 66 62 64 70 68 68 62 59 60 52 57 63 65 63 66
331 329 340 349 356 1 13 38 58 69 77 85 90 89 85 79 70 66 80 84 79 79 76 67 64 65 65 69 74 71 72 71 68 67 76 78 70 69
342 352 3 4 4 10 25 47 60 67 73 79 85 89 90 86 80 75 75 74 76 80 82 81 84 84 79 61 47 73 74 75 75 74 75 85 83 78
355 1 7 8 10 16 30 50 64 67 70 75 81 87 90 88 82 82 80 73 72 74 75 75 77 81 84 83 49 38 74 81 80 76 73 79 86 88
1 4 9 11 14 20 31 46 62 69 70 74 80 86 90 86 78 80 81 80 77 76 71 63 65 70 71 77 71 47 48 84 93 90 87 86 87 91
2 5 8 13 16 21 30 42 58 69 76 79 84 88 87 79 73 76 80 78 81 82 78 73 81 91 89 80 76 64 58 59 72 89 99 100 100 99
3 6 8 14 19 22 30 40 53 66 76 83 89 89 84 79 77 77 80 84 84 90 92 87 80 82 84 88 90 91 88 77 64 61 60 65 97 116
3 4 6 7 14 19 26 38 48 57 69 81 88 87 82 80 78 79 84 89 95 97 93 85 79 79 86 96 101 101 92 80 72 66 57 68 85 92